Wind_Speed
4 5 12 20 10 7 8 7 10 4 3 5 7 5 5 5 4 6 7 7 6 7 5 7 10 8 9 7 8 8 8 8 9 8 7 5 3 3 5 7 7 7 8 8
6 14 10 5 11 10 6 13 7 2 2 4 4 7 6 5 5 7 8 7 7 5 5 7 8 9 7 8 8 9 8 6 5 5 4 5 9 12 11 10 9 9 9 9
15 1 10 14 12 13 10 8 6 4 4 2 5 5 4 4 3 5 5 6 5 8 8 6 11 11 13 12 12 12 10 9 8 8 10 12 14 11 9 10 11 12 11 10
9 5 11 6 10 10 15 8 6 8 9 5 1 4 5 5 6 4 6 8 7 6 5 7 12 14 15 15 14 14 14 12 11 9 8 9 10 12 12 12 11 11 11 12
1 8 8 9 8 11 4 9 11 9 9 6 3 2 4 5 5 5 5 5 7 7 7 8 11 15 16 16 17 17 17 17 17 17 16 18 21 18 15 12 10 11 12 13
3 4 9 9 6 11 8 8 6 3 2 5 12 11 5 6 6 4 3 6 9 10 10 12 14 17 18 17 19 21 22 21 20 20 19 19 19 17 15 12 13 12 13 15
2 4 3 13 10 11 5 9 1 2 3 2 5 8 4 2 2 7 10 9 9 10 10 10 13 10 19 21 17 18 23 22 20 20 20 18 17 17 16 14 14 13 14 15
5 3 5 3 5 6 8 5 4 5 5 3 4 5 3 3 4 11 11 9 8 9 9 10 14 12 13 21 21 11 19 20 19 20 19 17 16 17 16 15 13 14 13 12
4 3 2 1 4 9 3 5 2 5 3 3 3 3 1 2 5 11 14 14 10 4 11 12 18 19 10 20 15 11 16 18 19 19 17 18 16 16 16 13 11 11 11 12
1 1 2 1 5 7 5 5 4 3 4 2 2 3 3 6 8 8 10 13 12 8 8 9 14 18 11 16 17 14 15 16 17 17 16 16 15 13 11 10 11 12 12 13
5 2 1 6 0 5 6 4 4 4 1 3 3 4 3 8 11 14 12 12 13 11 9 8 14 14 15 14 16 17 17 17 16 15 15 14 12 9 10 11 10 12 12 13
3 2 1 2 1 4 3 5 4 3 4 1 1 3 1 3 9 12 14 14 13 11 10 13 18 23 21 20 18 17 17 16 14 13 11 11 9 9 8 10 12 12 12 13
8 3 3 3 2 4 4 4 4 4 3 1 2 3 2 2 6 13 15 15 13 10 10 11 14 14 16 19 18 17 15 14 12 10 9 9 8 8 10 11 11 11 11 12
6 3 2 2 2 3 5 5 3 4 3 4 3 3 6 5 8 6 7 10 13 14 15 11 9 15 20 20 18 16 15 12 10 9 7 6 7 8 8 8 9 10 11 11
4 5 3 3 2 3 7 12 6 3 6 4 6 6 4 5 7 8 10 12 14 14 12 12 11 14 18 18 16 14 12 11 9 7 5 6 5 5 6 7 8 9 8 9
0 5 5 2 5 9 3 7 4 4 3 3 4 4 3 4 7 6 8 12 13 13 12 10 11 15 18 20 18 15 13 10 7 6 5 4 3 3 5 5 6 6 8 8
4 6 4 1 3 6 3 13 13 4 5 7 5 6 5 4 7 8 10 13 15 12 11 11 12 16 21 20 17 15 12 10 8 5 4 2 2 2 3 4 5 6 7 8
7 4 2 2 2 2 2 2 3 4 5 6 2 8 7 6 4 5 4 7 7 6 7 8 17 21 22 19 17 15 12 9 7 5 4 2 1 1 1 3 5 5 6 7
3 5 4 5 3 2 2 5 7 8 8 5 4 7 4 5 3 2 2 3 3 4 7 16 23 26 22 19 16 13 11 8 8 7 5 3 1 0 1 3 4 5 5 6
5 7 4 2 5 6 4 4 4 3 4 8 7 9 9 6 4 3 3 3 4 7 12 19 21 21 19 16 14 12 11 12 11 7 4 2 3 3 2 3 3 4 5 6
3 4 4 1 2 6 4 0 2 6 5 2 5 6 7 4 2 4 6 5 10 12 18 21 21 22 19 16 15 14 13 11 8 5 4 5 4 4 3 3 3 4 4 4
3 4 2 2 4 3 2 2 6 2 2 3 4 4 6 6 5 5 6 6 11 14 16 16 17 17 15 14 14 13 11 9 8 7 6 6 5 5 4 3 4 4 5 5
1 3 4 4 4 1 1 2 1 3 3 2 7 5 7 7 4 6 5 6 10 13 14 14 14 13 13 14 13 12 10 10 9 9 8 7 7 6 5 5 4 4 4 3
2 2 2 3 1 2 2 2 1 1 3 5 6 6 4 6 7 6 6 7 12 14 16 16 16 16 16 15 14 12 11 12 11 10 9 9 8 7 6 6 5 4 4 3
3 2 2 1 2 4 2 2 4 4 5 6 4 4 5 7 4 4 5 9 15 18 20 20 21 20 19 15 15 15 14 13 12 12 11 10 9 8 7 7 6 6 5 4
4 5 3 3 3 2 2 4 3 7 5 4 4 3 2 4 5 4 7 12 16 19 19 20 21 20 20 16 17 18 17 16 15 14 13 12 10 9 9 8 6 5 4 4
Wind_Direction
207 206 199 202 212 214 172 174 193 178 196 149 206 236 245 170 181 189 194 174 169 166 125 129 182 191 195 195 205 206 205 205 216 217 220 215 161 133 88 66 55 47 40 32
177 224 207 164 192 218 207 200 173 45 195 145 194 249 248 171 216 198 183 177 177 140 126 112 138 160 171 160 158 166 171 173 181 184 167 142 132 110 91 71 61 52 42 38
206 75 165 181 176 178 199 198 168 154 182 81 129 287 202 218 204 174 165 162 177 168 149 134 126 130 132 129 133 133 127 121 118 125 128 125 126 117 91 70 65 58 51 50
218 129 168 177 181 179 209 185 208 154 175 194 156 261 232 190 196 179 176 172 166 145 118 120 129 124 122 118 121 122 118 113 109 112 133 151 142 115 91 82 80 66 54 48
86 173 187 188 188 176 206 164 181 177 192 140 212 192 256 141 199 198 192 159 132 126 123 115 114 118 115 120 117 113 111 106 105 106 106 111 106 104 102 98 89 71 59 53
273 297 212 189 164 171 135 88 48 63 144 221 189 196 226 185 182 151 125 130 121 116 106 98 111 119 113 114 116 117 111 104 108 109 107 109 107 108 106 94 81 71 61 55
351 242 267 150 123 154 129 137 120 170 187 207 348 200 211 175 145 168 152 135 123 123 119 119 108 98 116 112 105 112 114 104 104 104 102 101 103 103 95 86 77 71 60 48
177 174 218 205 144 164 158 154 166 177 178 136 352 221 213 279 113 112 103 110 110 124 114 104 93 100 108 110 105 116 107 111 109 103 100 95 97 94 92 86 79 69 56 42
168 240 301 223 106 154 158 165 108 113 57 110 188 278 323 90 91 126 132 126 109 146 120 113 108 102 101 102 107 124 113 107 102 99 105 103 98 94 88 79 64 53 40 28
76 225 342 173 90 25 137 143 79 3 132 218 249 266 235 199 165 141 139 135 135 136 116 110 109 112 144 127 138 130 116 111 110 108 105 100 95 88 79 68 50 34 27 19
179 314 293 171 120 168 134 153 89 116 99 147 143 247 193 190 178 165 157 147 147 142 137 126 121 151 149 146 143 137 130 122 117 112 107 100 89 76 59 46 39 33 25 23
134 205 176 51 262 262 97 146 143 119 199 261 111 269 257 195 174 167 162 159 164 164 160 158 160 162 160 156 145 138 132 124 119 114 103 90 78 63 56 47 37 32 30 26
152 207 128 118 42 19 137 128 113 122 90 270 109 254 218 182 164 178 173 174 173 155 153 156 155 159 162 147 146 142 136 130 124 113 96 85 71 54 45 40 36 30 31 31
122 96 6 174 96 130 128 142 137 105 109 145 249 268 220 200 172 157 144 153 150 156 160 160 153 171 158 157 152 144 138 136 125 115 99 81 58 46 42 37 36 33 32 32
134 124 101 353 291 102 132 164 155 115 145 138 226 211 195 202 198 176 162 150 150 156 160 169 169 168 158 153 147 145 143 139 137 123 100 75 63 53 47 39 36 32 30 32
227 133 113 30 325 138 119 165 163 136 154 282 191 250 187 133 112 120 142 152 162 170 171 165 165 161 159 162 160 156 152 148 141 132 111 98 77 52 46 41 37 33 33 30
121 131 131 154 306 106 112 198 184 164 168 174 174 217 158 136 144 161 169 174 178 179 170 177 172 164 167 170 167 161 159 157 156 151 135 117 87 60 50 41 30 28 25 18
123 104 53 148 257 71 239 27 120 228 218 207 157 163 160 154 114 111 97 167 176 170 165 154 154 164 169 168 169 170 168 167 169 169 169 156 137 94 48 28 19 17 5 5
129 116 101 154 153 320 14 189 179 177 240 205 178 129 113 106 85 58 76 61 109 144 163 169 177 171 168 169 171 170 169 175 185 191 193 197 206 289 343 352 357 349 349 2
110 64 107 84 119 175 206 200 190 133 300 187 166 159 148 149 147 241 145 103 96 127 151 154 160 158 163 167 172 179 189 194 198 199 210 239 267 270 291 328 313 330 350 347
35 17 119 137 122 289 244 222 105 101 240 68 156 140 137 150 175 134 123 96 128 138 146 153 161 166 170 176 184 193 200 208 207 213 239 250 252 260 261 279 302 319 326 336
131 125 170 77 69 291 164 72 156 217 356 132 113 139 122 109 104 115 110 129 141 145 153 163 165 175 183 191 195 204 212 215 218 231 240 244 240 236 261 268 279 297 316 338
78 173 175 169 202 339 224 322 349 161 139 105 113 119 123 120 151 156 154 163 175 175 177 183 188 192 201 211 215 220 222 220 225 230 233 234 236 244 249 260 281 297 303 318
315 200 88 60 224 248 203 207 102 82 100 88 88 111 114 122 154 172 167 185 193 197 199 200 206 215 222 226 226 228 227 225 230 233 229 230 234 245 256 269 272 259 261 258
201 107 169 292 317 336 256 248 130 85 89 102 99 119 126 128 177 178 200 205 211 215 216 215 221 230 239 236 240 239 235 233 231 230 229 232 239 247 252 248 250 251 254 259
182 180 145 199 206 189 225 190 167 133 148 164 142 149 133 169 187 194 228 232 228 229 228 232 238 244 248 246 245 239 236 235 234 231 232 233 235 237 239 238 241 248 238 259
Height
790 791 786 790 796 795 798 809 811 815 813 812 817 813 807 811 815 815 816 818 821 822 827 827 831 835 836 837 840 842 844 845 846 848 850 852 855 857 858 859 858 858 858 857
792 782 782 786 794 801 800 804 811 817 813 812 816 814 808 810 810 810 813 817 819 824 825 828 830 832 836 836 839 841 843 844 845 846 848 851 853 856 858 859 859 859 858 857
783 782 781 785 793 798 800 803 805 814 816 813 815 817 810 805 805 809 810 813 817 821 825 827 830 833 834 838 839 840 842 843 844 846 848 850 853 855 857 858 859 859 859 858
779 781 782 784 789 791 800 796 803 811 813 818 814 825 813 807 807 809 811 811 816 821 826 828 830 834 835 837 839 840 841 842 844 845 847 850 851 854 858 859 860 860 860 859
784 781 787 785 783 788 794 793 798 807 810 812 821 823 811 809 812 811 813 814 818 823 827 831 833 835 837 839 840 842 841 843 845 846 848 850 853 856 858 861 861 861 861 860
790 788 782 779 784 785 792 801 811 815 814 817 809 811 814 811 805 809 816 818 820 825 830 833 837 838 839 842 842 843 843 846 848 847 850 852 854 856 859 861 860 862 862 862
793 786 779 774 787 790 789 796 820 821 818 811 825 814 803 804 802 801 811 818 821 825 829 833 835 844 840 842 849 850 845 849 850 850 852 855 856 855 858 860 861 862 861 861
785 784 778 774 773 778 788 788 802 804 810 820 826 811 801 806 805 804 811 819 826 829 830 833 835 845 849 841 842 862 850 852 851 850 854 856 859 858 860 861 861 861 862 862
784 782 779 775 773 775 793 792 799 812 841 819 816 814 807 812 813 809 810 816 825 836 830 833 837 841 853 839 848 862 858 855 853 853 857 857 860 861 862 863 865 863 862 861
784 780 780 778 778 783 784 795 807 811 820 822 818 815 807 814 810 811 813 815 825 834 835 835 841 840 855 848 855 857 856 857 857 857 859 860 862 863 864 863 863 863 862 861
784 787 787 782 783 783 792 796 803 803 811 810 817 806 802 806 804 807 810 818 825 831 836 839 841 852 851 855 857 856 856 857 859 859 860 860 862 866 864 863 864 861 861 860
783 791 782 791 790 790 783 790 792 796 809 819 810 804 800 801 805 805 810 819 825 829 834 839 844 848 851 855 856 856 855 855 859 861 861 862 864 865 866 864 861 861 860 859
780 786 783 788 790 787 784 788 791 798 805 817 809 803 800 801 805 805 808 813 820 827 834 838 843 848 852 851 854 854 854 856 858 859 862 864 865 866 863 862 861 862 861 859
768 791 788 784 781 782 786 788 790 791 804 810 809 794 799 800 801 806 810 814 817 822 829 837 843 847 846 849 851 852 854 856 857 859 862 863 864 863 863 864 862 861 860 859
773 794 802 801 793 784 785 788 792 793 798 801 796 800 791 796 798 801 804 811 817 822 827 833 839 844 846 848 850 852 854 855 858 860 861 862 863 863 863 863 862 861 860 859
781 791 793 803 801 787 793 793 794 799 805 808 802 795 792 796 799 805 808 810 815 820 824 831 836 840 843 846 849 852 855 858 859 860 860 861 862 862 862 862 861 861 859 859
776 784 794 801 812 792 795 791 794 796 799 798 798 788 794 796 798 801 806 807 810 815 821 827 832 838 842 846 848 851 854 856 858 859 859 860 861 861 861 860 859 858 857 856
777 797 798 805 809 794 789 797 796 794 791 791 787 791 793 795 800 802 804 808 812 816 820 826 830 836 840 844 847 850 852 855 856 858 858 859 860 859 859 857 857 856 856 854
770 790 827 815 831 810 793 802 800 793 791 790 789 796 799 804 802 805 809 812 813 816 819 822 827 831 837 841 845 849 851 853 856 857 857 857 856 855 855 855 854 855 855 852
777 781 792 854 815 814 782 789 789 784 800 787 789 795 802 806 809 808 812 813 816 818 820 824 829 833 838 842 845 848 851 852 853 854 853 852 853 853 853 852 855 854 852 851
795 817 824 862 842 819 792 790 787 804 794 790 791 797 804 803 807 811 814 816 819 820 822 826 829 831 834 839 841 844 848 848 849 848 849 849 850 851 851 852 851 851 850 849
795 811 835 868 839 793 792 792 787 792 795 794 797 800 802 808 812 814 815 819 822 823 826 829 831 833 836 838 840 841 842 844 844 844 845 848 847 848 848 848 848 848 847 846
801 804 808 800 802 798 796 795 794 796 796 795 798 802 805 810 814 817 818 820 822 823 826 828 830 832 833 834 835 837 838 838 840 842 842 843 845 845 844 845 845 844 844 844
801 802 806 800 793 795 795 794 793 793 794 796 797 803 804 808 814 816 818 819 821 823 823 825 827 827 828 831 832 833 835 836 836 837 838 840 841 842 842 841 841 842 842 841
805 803 801 805 794 795 793 793 792 795 796 798 801 804 806 809 813 814 817 817 818 819 819 820 820 822 823 827 828 829 829 830 831 834 835 836 837 838 838 839 839 839 838 837
803 795 802 799 793 793 791 793 796 796 799 803 804 806 806 807 810 811 812 811 812 812 813 815 816 818 818 821 822 824 825 827 828 830 831 832 833 834 835 836 836 836 835 834